Simultaneous Nadir Overpasses (SNOs) Predictions

Prediction of SNOs between GOES-16 and NOAA-19 Satellite Orbit:

Table of predicted SNOs for the next 14.0 days since TLE Epoch: 1/18/2025
Index Date Time (GOES-16) GOES-16 Lat,Lon NOAA-19 Lat,Lon Distance(km) Time Diff (sec)
1 01/18/2025 02:52:45 -0.00, -75.15 -0.82, -78.59 393.07 80
2 01/19/2025 02:40:13 -0.00, -75.17 -0.12, -75.55 44.18 80
3 01/20/2025 02:25:02 -0.00, -75.19 0.58, -72.51 305.05 80
4 01/22/2025 14:43:48 0.01, -75.28 0.38, -76.99 195.31 80
5 01/23/2025 14:33:56 0.01, -75.30 -0.31, -73.95 154.14 80
6 01/26/2025 02:52:55 -0.02, -75.31 -0.71, -78.48 360.41 80
7 01/27/2025 02:40:23 -0.01, -75.33 -0.05, -75.43 10.80 80
8 01/28/2025 02:25:11 -0.01, -75.36 0.68, -72.39 339.02 80
9 01/30/2025 14:46:37 0.02, -75.46 0.35, -76.86 160.59 80
10 01/31/2025 14:31:25 0.01, -75.48 -0.37, -73.82 189.74 80
